#timestamp,LO_Frequency,Hit,StdDev 
1650474015.0,286046997.8,N
1650474015.9,286046997.8,N
1650474035.8,286046997.0,N
1650474055.6,286046999.6,N
1650474075.4,286046999.3,N
1650474095.3,286046999.2,N
1650474115.1,286046999.1,N
1650474135.8,286046997.2,N
1650474155.7,286046999.6,N
1650474175.5,286046997.2,N
1650474195.4,286046996.8,N
1650474215.2,286046997.5,N
1650474235.0,286046995.1,Y
1650474235.9,286046995.1,P
1650474255.8,286046997.1,N
1650474275.6,286046996.6,N
1650474295.5,286046997.8,N
1650474315.3,286046997.9,N
1650474335.1,286046997.9,N
1650474355.9,286046995.2,Y
1650474375.7,286046998.8,P
1650474395.5,286046998.1,N
1650474415.4,286046999.0,N
1650474435.2,286046998.1,N
1650474455.1,286046998.7,N
1650474456.0,286046998.7,N
1650474475.8,286046998.4,N
1650474495.6,286046998.7,N
1650474515.5,286046997.3,Y
1650474535.3,286046999.5,P
1650474555.1,286046999.4,N
1650474575.9,286046997.0,P
1650474595.7,286046999.4,N
1650474615.6,286046998.3,N
1650474635.4,286046999.2,N
1650474655.2,286046999.0,N
1650474675.1,286046999.1,N
1650474676.0,286046999.1,N
1650474695.8,286046997.4,Y
1650474715.7,286046999.6,P
1650474735.5,286046996.9,P
1650474755.3,286046997.6,N
1650474775.2,286046997.7,N
1650474795.9,286046997.4,N
1650474815.7,286046995.5,Y
1650474835.6,286046998.9,P
1650474855.4,286046997.0,P
1650474875.3,286046996.6,P
1650474895.1,286046997.0,Y
1650474896.0,286046997.0,P
1650474915.8,286047000.1,N
1650474935.7,286047000.1,N
1650474955.5,286047001.6,N
1650474975.3,286047002.2,N
1650474995.2,286047001.8,N
1650475015.0,286047002.6,N
1650475015.9,286047002.6,N
1650475035.8,286047000.5,N
1650475055.6,286047000.4,N
1650475075.4,286047000.3,N
1650475095.3,286047000.8,N
1650475115.1,286046998.1,N
1650475135.9,286046998.1,N
1650475155.7,286046998.5,N
1650475175.5,286046998.2,N
1650475195.4,286046997.1,N
1650475215.2,286046997.4,N
1650475235.0,286046998.8,N
1650475235.9,286046998.8,N
1650475255.8,286046998.8,N
1650475275.6,286046999.5,N
1650475295.5,286046999.6,N
1650475315.3,286046998.9,N
1650475335.1,286046998.8,N
1650475355.9,286046998.8,N
1650475375.7,286046999.0,N
1650475395.5,286046999.6,N
1650475415.4,286046998.1,N
1650475435.2,286046998.2,N
1650475455.1,286046999.4,N
1650475456.0,286046999.4,N
1650475475.8,286046999.5,N
1650475495.6,286046999.2,N
1650475515.5,286046997.0,N
1650475535.3,286046997.6,N
1650475555.1,286046996.1,N
1650475575.9,286046995.5,Y
1650475595.7,286046997.6,P
1650475615.6,286046997.4,P
1650475635.4,286046999.6,N
1650475655.2,286046999.6,N
1650475675.1,286046996.5,Y
1650475676.0,286046996.5,P
1650475695.8,286046999.4,N
1650475715.7,286046999.5,N
1650475735.5,286046996.8,N
1650475755.3,286046997.3,N
1650475775.2,286046996.7,N
1650475795.0,286046998.4,N
1650475795.9,286046998.4,N
1650475815.7,286046998.9,N
1650475835.6,286046998.8,N
1650475855.4,286046996.9,N
1650475875.3,286046999.3,N
1650475895.1,286046998.8,N
1650475896.0,286046998.8,N
1650475915.8,286046998.9,N
1650475935.7,286046998.2,N
1650475955.5,286046999.0,N
1650475975.3,286046998.4,N
1650475995.2,286046999.0,N
1650476015.0,286046998.9,N
1650476015.9,286046998.9,N
1650476035.8,286046999.6,N
1650476055.6,286046996.5,Y
1650476075.4,286046998.8,P
1650476095.3,286046998.4,P
1650476115.1,286047001.2,P
1650476135.9,286046998.3,N
1650476155.7,286046998.3,N
1650476175.5,286047000.8,N
1650476195.4,286046998.8,N
1650476215.2,286046998.3,N
1650476235.1,286047001.2,N
1650476236.0,286047001.2,N
1650476255.8,286046999.2,N
1650476275.6,286046998.2,N
1650476295.5,286046998.3,N
1650476315.3,286046998.4,N
1650476335.2,286046998.9,N
1650476355.9,286046999.5,N
1650476375.7,286046999.0,N
1650476395.6,286046996.9,N
1650476415.4,286046996.7,N
1650476435.3,286046995.4,Y
1650476455.1,286046996.8,P
1650476456.0,286046996.8,P
1650476475.8,286046999.3,N
1650476495.7,286046997.0,N
1650476515.5,286046999.5,N
1650476535.3,286046996.5,N
1650476555.2,286046998.6,N
1650476575.0,286047001.1,N
1650476575.9,286047001.1,N
1650476595.8,286046999.3,N
1650476615.6,286046998.9,N
1650476635.4,286046998.2,N
1650476655.3,286046998.8,N
1650476675.1,286046998.5,N
1650476695.9,286047001.1,N
1650476715.7,286047001.0,N
1650476735.5,286047000.3,N
1650476755.4,286046999.8,N
1650476775.2,286047002.8,N
1650476795.1,286047002.5,N
1650476796.0,286047002.5,N
1650476815.8,286047001.5,N
1650476835.6,286047002.1,N
1650476855.5,286047002.5,N
1650476875.3,286047002.4,N
1650476895.2,286047002.5,N
1650476915.0,286047001.6,N
1650476915.9,286047001.6,N
1650476935.7,286047004.4,N
1650476955.6,286047004.0,N
1650476975.4,286047003.9,N
1650476995.3,286047002.1,N
1650477015.1,286047000.1,N
1650477016.0,286047000.1,N
1650477035.8,286047004.4,N
1650477055.7,286047004.0,N
1650477075.5,286047004.1,N
1650477095.4,286047001.3,N
1650477115.2,286047004.3,N
1650477135.0,286047002.9,N
1650477136.0,286047002.9,N
1650477155.8,286047001.4,N
1650477175.6,286047001.7,N
1650477195.5,286047001.4,N
1650477215.3,286047002.2,N
1650477235.1,286047002.2,N
1650477255.9,286047001.3,N
1650477275.7,286047001.8,N
1650477295.6,286047002.6,N
1650477315.4,286047002.6,N
1650477335.2,286047001.8,N
1650477355.1,286047001.3,N
1650477356.0,286047001.3,N
1650477375.8,286047003.9,Y
1650477395.7,286047002.7,P
1650477415.5,286047003.9,P
1650477435.3,286047001.9,N
1650477455.2,286047004.2,Y
1650477475.0,286047001.0,P
1650477475.9,286047001.0,N
1650477495.8,286047002.8,P
1650477515.6,286047002.1,N
1650477535.4,286047004.3,Y
1650477555.3,286047000.0,P
1650477575.1,286047000.4,N
1650477595.8,286046999.9,N
